period_start,C,m1,H,J0,J1,J2,J3,J4,J5,JA,JB,JC,JD,JJ,JK,JN,#
2013-12-03 00:00:55,0.12,2.30,0.00,25.31,26.45,29.73,5.73,29.88,1009.29,2046.95,2643.68,2716.05,2941.05,349.30,318.51,24.82,0000 0000 0000 0000 000000
2013-12-03 00:01:55,0.09,2.30,0.00,25.35,26.45,29.72,5.96,30.08,1009.29,2046.94,2643.28,2716.02,2940.98,350.14,319.23,24.83,0000 0000 0000 0000 000000
2013-12-03 00:02:55,0.08,2.30,0.00,25.41,26.46,29.73,5.77,29.96,1009.29,2046.90,2643.09,2715.92,2940.84,349.14,318.26,24.83,0000 0000 0000 0000 000000
2013-12-03 00:03:56,0.04,2.30,0.00,25.39,26.46,29.74,5.78,30.17,1009.29,2046.77,2642.92,2715.49,2940.41,350.07,319.12,24.84,0000 0000 0000 0000 000000
2013-12-03 00:04:56,0.12,2.30,0.00,25.39,26.47,29.73,5.91,30.08,1009.29,2046.69,2642.51,2715.17,2940.15,349.51,318.82,24.85,0000 0000 0000 0000 000000
2013-12-03 00:05:56,0.15,2.30,0.00,25.36,26.47,29.76,6.00,30.17,1009.29,2046.78,2642.20,2715.07,2940.05,350.81,319.83,24.85,0000 0000 0000 0000 000000
2013-12-03 00:06:56,0.17,2.31,0.00,25.38,26.47,29.76,5.79,30.00,1009.29,2046.80,2642.07,2715.03,2940.01,350.63,319.65,24.86,0000 0000 0000 0000 000000
2013-12-03 00:07:57,0.04,2.31,0.00,25.42,26.47,29.77,5.86,29.96,1009.29,2046.79,2642.02,2715.00,2939.90,350.67,319.64,24.86,0000 0000 0000 0000 000000
2013-12-03 00:08:57,0.05,2.31,0.00,25.40,26.47,29.74,6.02,30.08,1009.29,2046.83,2641.80,2714.81,2939.52,350.28,319.30,24.87,0000 0000 0000 0000 000000
2013-12-03 00:09:57,0.22,2.31,0.00,25.42,26.47,29.77,6.01,30.04,1009.29,2046.85,2641.34,2714.42,2939.21,349.98,319.01,24.88,0000 0000 0000 0000 000000
2013-12-03 00:10:57,0.23,2.31,0.00,25.38,26.47,29.77,5.83,30.38,1009.29,2046.81,2641.12,2714.17,2939.08,350.54,319.56,24.88,0000 0000 0000 0000 000000
2013-12-03 00:11:58,0.10,2.31,0.00,25.34,26.47,29.77,5.83,29.83,1009.29,2046.82,2641.04,2714.07,2939.00,350.42,319.50,24.89,0000 0000 0000 0000 000000
2013-12-03 00:12:58,-0.01,2.31,0.00,25.39,26.47,29.78,5.74,30.08,1009.29,2046.74,2640.95,2714.02,2938.93,349.77,318.86,24.89,0000 0000 0000 0000 000000
2013-12-03 00:13:58,0.05,2.31,0.00,25.40,26.47,29.76,5.89,30.21,1009.29,2046.80,2640.63,2713.98,2938.62,350.08,318.73,24.90,0000 0000 0000 0000 000000
2013-12-03 00:14:58,0.20,2.31,0.00,25.33,26.47,29.75,5.86,29.83,1009.29,2046.82,2640.25,2713.75,2938.26,350.35,319.44,24.90,0000 0000 0000 0000 000000
2013-12-03 00:15:59,0.18,2.31,0.00,25.31,26.47,29.76,5.94,30.17,1009.29,2046.73,2640.08,2713.34,2938.09,350.51,319.60,24.91,0000 0000 0000 0000 000000
2013-12-03 00:16:59,0.10,2.31,0.00,25.31,26.48,29.77,5.84,30.17,1009.29,2046.64,2639.99,2713.13,2938.03,350.25,319.37,24.92,0000 0000 0000 0000 000000
2013-12-03 00:17:59,-0.02,2.31,0.00,25.31,26.48,29.75,5.83,30.13,1009.29,2046.56,2639.71,2713.04,2937.98,349.42,318.78,24.92,0000 0000 0000 0000 000000
2013-12-03 00:19:00,0.09,2.31,0.00,25.34,26.48,29.79,5.76,30.29,1009.29,2046.61,2639.29,2713.00,2937.66,348.60,318.21,24.93,0000 0000 0000 0000 000000
2013-12-03 00:20:00,0.10,2.31,0.00,25.33,26.49,29.76,5.93,30.21,1009.29,2046.44,2639.10,2712.91,2937.26,350.36,319.49,24.93,0000 0000 0000 0000 000000
2013-12-03 00:21:00,0.02,2.31,0.00,25.29,26.49,29.77,5.91,30.42,1009.29,2046.25,2638.95,2712.46,2937.09,350.90,319.98,24.94,0000 0000 0000 0000 000000
2013-12-03 00:22:00,0.02,2.31,0.00,25.33,26.50,29.77,5.88,30.04,1009.29,2046.27,2638.54,2712.18,2937.03,349.92,319.05,24.95,0000 0000 0000 0000 000000
2013-12-03 00:23:01,0.24,2.32,0.00,25.33,26.50,29.78,5.87,30.04,1009.29,2046.50,2638.24,2712.07,2936.97,349.97,319.45,24.95,0000 0000 0000 0000 000000
2013-12-03 00:24:01,0.22,2.32,0.00,25.30,26.50,29.79,5.98,30.13,1009.29,2046.49,2638.09,2712.02,2936.72,350.69,319.45,24.96,0000 0000 0000 0000 000000
2013-12-03 00:25:01,0.05,2.32,0.00,25.32,26.50,29.78,5.90,30.04,1009.29,2046.36,2637.98,2711.98,2936.32,349.83,319.01,24.96,0000 0000 0000 0000 000000
2013-12-03 00:26:01,0.00,2.32,0.00,25.36,26.50,29.79,5.76,29.96,1009.30,2046.29,2637.66,2711.77,2936.11,350.26,319.53,24.97,0000 0000 0000 0000 000000
2013-12-03 00:27:02,0.13,2.32,0.00,25.33,26.50,29.81,5.83,30.04,1009.29,2046.19,2637.29,2711.39,2936.03,349.32,318.50,24.98,0000 0000 0000 0000 000000
2013-12-03 00:28:02,0.07,2.32,0.00,25.30,26.50,29.80,5.87,30.04,1009.29,2046.19,2637.10,2711.17,2935.99,349.97,319.12,24.98,0000 0000 0000 0000 000000
2013-12-03 00:29:02,0.10,2.32,0.00,25.33,26.50,29.81,5.85,29.96,1009.29,2046.12,2637.02,2711.05,2935.76,350.03,319.15,24.99,0000 0000 0000 0000 000000
2013-12-03 00:30:02,0.03,2.32,0.00,25.35,26.50,29.81,5.79,29.63,1009.29,2046.13,2636.76,2711.02,2935.34,350.29,319.37,24.99,0000 0000 0000 0000 000000
2013-12-03 00:31:03,0.14,2.32,0.00,25.32,26.50,29.79,5.85,30.04,1009.29,2046.23,2636.33,2710.95,2935.13,349.61,318.78,25.00,0000 0000 0000 0000 000000
2013-12-03 00:32:03,0.24,2.32,0.00,25.33,26.50,29.78,5.81,30.13,1009.30,2046.21,2636.12,2710.53,2935.03,349.69,318.84,25.00,0000 0000 0000 0000 000000
2013-12-03 00:33:03,0.14,2.32,0.00,25.34,26.50,29.77,5.86,30.17,1009.29,2046.17,2636.04,2710.20,2934.98,349.31,318.65,25.01,0000 0000 0000 0000 000000
2013-12-03 00:34:03,0.08,2.32,0.00,25.34,26.50,29.79,5.85,30.21,1009.29,2046.14,2635.81,2710.07,2934.61,349.94,319.06,25.02,0000 0000 0000 0000 000000
2013-12-03 00:35:04,0.14,2.32,0.00,25.35,26.50,29.80,5.97,30.21,1009.30,2046.10,2635.38,2710.01,2934.26,349.68,318.82,25.02,0000 0000 0000 0000 000000
2013-12-03 00:36:04,0.11,2.32,0.00,25.36,26.51,29.78,5.77,29.96,1009.31,2046.07,2635.15,2709.96,2934.09,349.83,318.89,25.03,0000 0000 0000 0000 000000
2013-12-03 00:37:04,0.05,2.32,0.00,25.40,26.52,29.78,5.89,30.00,1009.30,2046.15,2635.04,2709.82,2934.03,349.88,319.22,25.03,0000 0000 0000 0000 000000
2013-12-03 00:38:05,0.14,2.33,0.00,25.40,26.52,29.79,5.93,30.08,1009.29,2046.13,2634.92,2709.42,2933.96,349.97,319.03,25.04,0000 0000 0000 0000 000000
2013-12-03 00:39:05,0.13,2.33,0.00,25.41,26.52,29.78,5.84,29.96,1009.30,2046.08,2634.43,2709.15,2933.65,349.51,318.59,25.05,0000 0000 0000 0000 000000
2013-12-03 00:40:05,0.16,2.33,0.00,25.38,26.52,29.78,5.99,29.96,1009.29,2046.06,2634.16,2709.05,2933.28,350.64,319.66,25.05,0000 0000 0000 0000 000000
2013-12-03 00:41:05,0.11,2.33,0.00,25.37,26.52,29.80,5.77,30.13,1009.29,2046.07,2634.05,2708.99,2933.10,349.74,318.95,25.06,0000 0000 0000 0000 000000
2013-12-03 00:42:05,0.08,2.33,0.00,25.35,26.52,29.78,5.90,30.21,1009.31,2046.04,2633.89,2708.80,2933.03,350.12,319.58,25.06,0000 0000 0000 0000 000000
2013-12-03 00:43:06,0.11,2.33,0.00,25.33,26.52,29.77,5.90,30.33,1009.30,2046.03,2633.43,2708.33,2932.90,350.49,319.60,25.07,0000 0000 0000 0000 000000
2013-12-03 00:44:06,0.20,2.33,0.00,25.34,26.52,29.79,5.88,30.17,1009.30,2046.04,2633.15,2708.13,2932.49,350.09,319.02,25.07,0000 0000 0000 0000 000000
2013-12-03 00:45:06,0.19,2.33,0.00,25.32,26.52,29.79,5.87,30.21,1009.31,2046.03,2633.02,2708.04,2932.19,350.14,319.08,25.08,0000 0000 0000 0000 000000
2013-12-03 00:46:06,0.07,2.33,0.00,25.31,26.52,29.80,5.95,30.04,1009.31,2046.04,2632.87,2708.01,2932.07,351.73,320.73,25.09,0000 0000 0000 0000 000000
2013-12-03 00:47:07,0.06,2.33,0.00,25.33,26.52,29.82,5.81,29.79,1009.32,2046.03,2632.40,2707.96,2932.02,348.95,318.18,25.09,0000 0000 0000 0000 000000
2013-12-03 00:48:07,0.10,2.33,0.00,25.41,26.52,29.85,5.88,30.00,1009.32,2046.05,2632.15,2707.77,2931.99,350.45,319.53,25.10,0000 0000 0000 0000 000000
2013-12-03 00:49:07,0.12,2.33,0.00,25.42,26.52,29.84,5.74,29.88,1009.31,2046.05,2632.04,2707.39,2931.70,348.09,317.29,25.10,0000 0000 0000 0000 000000
2013-12-03 00:50:08,0.21,2.33,0.00,25.40,26.52,29.82,5.85,30.13,1009.29,2046.03,2631.98,2707.15,2931.27,349.79,318.84,25.11,0000 0000 0000 0000 000000
2013-12-03 00:51:08,0.10,2.34,0.00,25.42,26.52,29.84,5.79,29.88,1009.29,2046.02,2631.63,2707.04,2931.09,349.72,318.77,25.12,0000 0000 0000 0000 000000
2013-12-03 00:52:08,0.12,2.34,0.00,25.42,26.52,29.81,5.80,29.67,1009.30,2046.01,2631.26,2706.98,2931.01,349.41,318.49,25.12,0000 0000 0000 0000 000000
2013-12-03 00:53:08,0.08,2.34,0.00,25.39,26.52,29.82,5.83,30.13,1009.31,2046.02,2631.09,2706.79,2930.90,350.44,319.91,25.13,0000 0000 0000 0000 000000
2013-12-03 00:54:08,0.13,2.34,0.00,25.38,26.52,29.84,5.82,30.13,1009.29,2046.03,2631.01,2706.36,2930.47,350.32,319.36,25.13,0000 0000 0000 0000 000000
2013-12-03 00:55:09,0.23,2.34,0.00,25.39,26.53,29.80,5.85,30.13,1009.29,2046.02,2630.71,2706.13,2930.19,350.32,319.35,25.14,0000 0000 0000 0000 000000
2013-12-03 00:56:09,0.14,2.34,0.00,25.34,26.53,29.83,5.92,30.13,1009.29,2046.01,2630.30,2706.05,2930.07,349.98,318.71,25.15,0000 0000 0000 0000 000000
2013-12-03 00:57:09,0.09,2.34,0.00,25.35,26.54,29.83,5.88,30.21,1009.29,2046.01,2630.11,2706.00,2930.01,350.15,319.13,25.15,0000 0000 0000 0000 000000
2013-12-03 00:58:09,0.05,2.34,0.00,25.36,26.54,29.78,5.93,30.29,1009.29,2046.01,2630.02,2705.93,2929.90,350.51,319.83,25.16,0000 0000 0000 0000 000000
2013-12-03 00:59:10,0.05,2.34,0.00,25.35,26.54,29.79,5.79,29.75,1009.30,2046.01,2629.83,2705.58,2929.49,349.51,318.47,25.16,0000 0000 0000 0000 000000
2013-12-03 01:00:10,0.25,2.34,0.00,25.40,26.54,29.79,5.78,30.21,1009.31,2046.00,2629.38,2705.23,2929.18,349.96,319.03,25.17,0000 0000 0000 0000 000000
2013-12-03 01:01:10,0.21,2.34,0.00,25.40,26.55,29.78,5.88,30.08,1009.30,2046.01,2629.14,2705.08,2929.06,350.20,319.09,25.17,0000 0000 0000 0000 000000
2013-12-03 01:02:10,0.09,2.34,0.00,25.36,26.55,29.81,5.89,30.17,1009.31,2046.00,2629.04,2705.02,2929.02,350.10,319.35,25.18,0000 0000 0000 0000 000000
2013-12-03 01:03:11,0.03,2.34,0.00,25.36,26.55,29.82,5.92,30.17,1009.32,2046.00,2628.89,2704.98,2928.90,350.16,319.28,25.19,0000 0000 0000 0000 000000
2013-12-03 01:04:11,0.06,2.34,0.00,25.38,26.55,29.83,5.93,30.13,1009.32,2046.00,2628.41,2704.80,2928.51,350.63,319.38,25.19,0000 0000 0000 0000 000000
2013-12-03 01:05:11,0.23,2.35,0.00,25.38,26.55,29.83,5.82,29.79,1009.30,2046.01,2628.14,2704.37,2928.20,350.10,319.16,25.20,0000 0000 0000 0000 000000
2013-12-03 01:06:12,0.22,2.35,0.00,25.40,26.55,29.83,5.88,30.00,1009.31,2046.01,2628.05,2704.14,2928.07,350.61,319.62,25.20,0000 0000 0000 0000 000000
2013-12-03 01:07:12,0.10,2.35,0.00,25.39,26.55,29.82,5.84,29.92,1009.31,2046.01,2627.89,2704.05,2928.02,350.88,319.87,25.21,0000 0000 0000 0000 000000
2013-12-03 01:08:12,0.06,2.35,0.00,25.40,26.55,29.80,5.81,29.83,1009.30,2046.01,2627.55,2704.02,2928.00,350.65,319.64,25.22,0000 0000 0000 0000 000000
2013-12-03 01:09:13,0.07,2.35,0.00,25.39,26.55,29.81,5.76,30.08,1009.31,2046.01,2627.23,2703.95,2927.76,349.14,318.28,25.22,0000 0000 0000 0000 000000
2013-12-03 01:10:13,0.12,2.35,0.00,25.33,26.55,29.84,5.89,30.21,1009.29,2046.00,2627.07,2703.64,2927.37,350.11,319.22,25.23,0000 0000 0000 0000 000000
2013-12-03 01:11:13,0.20,2.35,0.00,25.32,26.55,29.84,5.83,30.08,1009.30,2046.00,2627.01,2703.34,2927.15,349.22,318.43,25.23,0000 0000 0000 0000 000000
2013-12-03 01:12:13,0.11,2.35,0.00,25.38,26.55,29.82,5.90,30.17,1009.29,2046.01,2626.89,2703.17,2927.05,350.12,319.18,25.24,0000 0000 0000 0000 000000
2013-12-03 01:13:14,0.07,2.35,0.00,25.40,26.55,29.85,5.85,30.29,1009.29,2046.00,2626.47,2703.07,2927.01,349.28,318.39,25.24,0000 0000 0000 0000 000000
2013-12-03 01:14:14,0.12,2.35,0.00,25.36,26.55,29.83,5.93,30.13,1009.29,2046.00,2626.17,2703.02,2926.86,349.66,318.61,25.25,0000 0000 0000 0000 000000
2013-12-03 01:15:14,0.08,2.35,0.00,25.35,26.55,29.85,5.71,30.13,1009.29,2046.00,2626.06,2702.96,2926.42,349.90,318.79,25.26,0000 0000 0000 0000 000000
2013-12-03 01:16:14,0.11,2.35,0.00,25.37,26.55,29.82,5.88,30.21,1009.29,2046.01,2625.92,2702.79,2926.17,349.96,319.08,25.26,0000 0000 0000 0000 000000
2013-12-03 01:17:14,0.13,2.35,0.00,25.37,26.55,29.82,5.89,30.00,1009.30,2046.00,2625.45,2702.38,2926.06,349.96,319.05,25.27,0000 0000 0000 0000 000000
2013-12-03 01:18:15,0.23,2.36,0.00,25.44,26.55,29.81,5.81,30.21,1009.29,2046.00,2625.16,2702.15,2926.02,349.45,318.51,25.27,0000 0000 0000 0000 000000
2013-12-03 01:19:15,0.11,2.36,0.00,25.40,26.55,29.84,5.90,30.08,1009.30,2046.00,2625.06,2702.05,2925.95,350.31,319.33,25.28,0000 0000 0000 0000 000000
2013-12-03 01:20:15,0.05,2.36,0.00,25.39,26.55,29.86,5.96,30.13,1009.31,2046.00,2625.01,2702.01,2925.67,350.43,319.46,25.29,0000 0000 0000 0000 000000
2013-12-03 01:21:15,0.06,2.36,0.00,25.44,26.56,29.85,5.82,30.04,1009.29,2046.00,2624.69,2701.96,2925.31,350.38,319.22,25.29,0000 0000 0000 0000 000000
2013-12-03 01:22:16,0.14,2.36,0.00,25.40,26.56,29.83,5.88,29.96,1009.31,2046.00,2624.28,2701.67,2925.12,350.57,319.79,25.30,0000 0000 0000 0000 000000
2013-12-03 01:23:16,0.20,2.36,0.00,25.36,26.57,29.82,5.88,30.00,1009.34,2046.00,2624.11,2701.29,2925.03,349.56,318.53,25.30,0000 0000 0000 0000 000000
2013-12-03 01:24:16,0.15,2.36,0.00,25.44,26.57,29.87,5.75,29.71,1009.42,2046.00,2624.03,2701.11,2924.99,350.93,320.10,25.31,0000 0000 0000 0000 000000
2013-12-03 01:25:17,0.06,2.36,0.00,25.44,26.57,29.90,5.83,29.88,1009.41,2046.00,2623.88,2701.04,2924.78,349.98,319.01,25.31,0000 0000 0000 0000 000000
2013-12-03 01:26:17,0.10,2.36,0.00,25.46,26.57,29.86,5.87,29.92,1009.40,2046.00,2623.45,2701.01,2924.40,349.61,318.65,25.32,0000 0000 0000 0000 000000
2013-12-03 01:27:17,0.13,2.36,0.00,25.41,26.57,29.83,5.84,29.88,1009.35,2046.00,2623.17,2700.99,2924.18,350.73,319.71,25.33,0000 0000 0000 0000 000000
2013-12-03 01:28:17,0.08,2.36,0.00,25.40,26.57,29.81,5.81,29.92,1009.33,2046.00,2623.06,2700.84,2924.07,349.02,318.17,25.33,0000 0000 0000 0000 000000
2013-12-03 01:29:18,0.08,2.36,0.00,25.39,26.57,29.82,5.81,30.00,1009.31,2046.00,2623.02,2700.55,2924.02,350.08,319.11,25.34,0000 0000 0000 0000 000000
2013-12-03 01:30:18,0.10,2.36,0.00,25.34,26.57,29.83,5.83,30.00,1009.32,2046.00,2622.99,2700.23,2923.96,349.34,318.52,25.34,0000 0000 0000 0000 000000
2013-12-03 01:31:18,0.11,2.36,0.00,25.35,26.57,29.85,5.93,30.04,1009.30,2046.00,2622.74,2700.08,2923.76,349.82,319.10,25.35,0000 0000 0000 0000 000000
2013-12-03 01:32:18,0.12,2.37,0.00,25.36,26.57,29.86,5.89,29.88,1009.33,2046.00,2622.36,2700.03,2923.44,349.01,318.48,25.36,0000 0000 0000 0000 000000
2013-12-03 01:33:19,0.13,2.37,0.00,25.39,26.57,29.86,5.74,29.92,1009.32,2046.00,2622.13,2700.00,2923.17,349.20,318.34,25.36,0000 0000 0000 0000 000000
2013-12-03 01:34:19,0.10,2.37,0.00,25.41,26.57,29.84,5.87,30.00,1009.33,2046.00,2622.01,2699.83,2923.06,350.34,319.36,25.37,0000 0000 0000 0000 000000
2013-12-03 01:35:19,0.09,2.37,0.00,25.38,26.57,29.85,6.08,30.04,1009.32,2046.00,2621.78,2699.37,2923.00,350.69,319.53,25.37,0000 0000 0000 0000 000000
2013-12-03 01:36:19,0.19,2.37,0.00,25.41,26.57,29.87,5.89,29.96,1009.31,2046.00,2621.38,2699.14,2922.89,350.19,319.06,25.38,0000 0000 0000 0000 000000
2013-12-03 01:37:20,0.16,2.37,0.00,25.40,26.57,29.86,5.92,30.04,1009.30,2046.00,2621.17,2699.05,2922.52,349.84,319.20,25.39,0000 0000 0000 0000 000000
2013-12-03 01:38:20,0.12,2.37,0.00,25.44,26.57,29.87,5.91,30.04,1009.31,2046.00,2621.06,2699.01,2922.22,350.34,319.33,25.39,0000 0000 0000 0000 000000
2013-12-03 01:39:20,0.06,2.37,0.00,25.47,26.57,29.86,5.64,29.96,1009.31,2046.00,2621.01,2698.99,2922.08,349.44,318.60,25.40,0000 0000 0000 0000 000000
2013-12-03 01:40:20,0.03,2.37,0.00,25.40,26.57,29.84,5.85,29.92,1009.31,2046.00,2620.83,2698.94,2922.03,349.32,318.44,25.40,0000 0000 0000 0000 000000
2013-12-03 01:41:21,0.08,2.37,0.00,25.35,26.57,29.86,5.77,29.96,1009.34,2046.00,2620.35,2698.60,2921.98,349.85,318.63,25.41,0000 0000 0000 0000 000000
2013-12-03 01:42:21,0.20,2.37,0.00,25.39,26.57,29.86,5.96,30.21,1009.36,2046.00,2620.13,2698.25,2921.71,350.00,318.95,25.41,0000 0000 0000 0000 000000
2013-12-03 01:43:21,0.17,2.37,0.00,25.39,26.57,29.88,5.93,30.04,1009.34,2046.00,2620.04,2698.09,2921.32,349.97,318.80,25.42,0000 0000 0000 0000 000000
2013-12-03 01:44:21,0.12,2.37,0.00,25.38,26.57,29.86,5.72,29.96,1009.32,2046.00,2619.86,2698.02,2921.11,350.37,319.41,25.43,0000 0000 0000 0000 000000
2013-12-03 01:45:22,0.08,2.37,0.00,25.41,26.57,29.88,5.99,30.33,1009.30,2046.00,2619.47,2697.96,2921.04,350.46,319.46,25.43,0000 0000 0000 0000 000000
2013-12-03 01:46:22,0.10,2.38,0.00,25.39,26.57,29.86,5.89,30.00,1009.30,2046.00,2619.17,2697.77,2920.99,349.43,318.54,25.44,0000 0000 0000 0000 000000
2013-12-03 01:47:22,0.12,2.38,0.00,25.39,26.57,29.84,5.67,29.75,1009.31,2046.00,2619.06,2697.42,2920.85,349.82,318.90,25.44,0000 0000 0000 0000 000000
2013-12-03 01:48:22,0.15,2.38,0.00,25.40,26.57,29.84,5.99,29.96,1009.29,2046.00,2619.01,2697.20,2920.55,351.05,320.01,25.45,0000 0000 0000 0000 000000
2013-12-03 01:49:23,0.11,2.38,0.00,25.43,26.57,29.86,5.81,29.88,1009.29,2046.00,2618.83,2697.07,2920.24,349.20,318.29,25.46,0000 0000 0000 0000 000000
2013-12-03 01:50:23,0.11,2.38,0.00,25.40,26.57,29.85,5.84,30.04,1009.29,2046.00,2618.41,2697.03,2920.08,350.07,319.11,25.46,0000 0000 0000 0000 000000
2013-12-03 01:51:23,0.12,2.38,0.00,25.41,26.57,29.85,5.84,30.04,1009.29,2046.00,2618.15,2696.99,2920.03,349.98,319.40,25.47,0000 0000 0000 0000 000000
2013-12-03 01:52:23,0.07,2.38,0.00,25.41,26.57,29.83,5.77,30.00,1009.29,2046.00,2618.05,2696.90,2919.98,349.27,318.80,25.47,0000 0000 0000 0000 000000
2013-12-03 01:53:23,0.06,2.38,0.00,25.40,26.58,29.86,5.88,29.88,1009.29,2046.00,2617.89,2696.54,2919.75,350.93,320.11,25.48,0000 0000 0000 0000 000000
2013-12-03 01:54:24,0.19,2.38,0.00,25.40,26.57,29.86,5.83,30.04,1009.29,2046.00,2617.46,2696.22,2919.32,349.57,318.56,25.48,0000 0000 0000 0000 000000
2013-12-03 01:55:24,0.24,2.38,0.00,25.41,26.58,29.87,5.87,30.04,1009.29,2046.00,2617.19,2696.08,2919.11,350.13,319.19,25.49,0000 0000 0000 0000 000000
2013-12-03 01:56:24,0.12,2.38,0.00,25.44,26.58,29.88,5.88,29.96,1009.29,2046.00,2617.07,2696.03,2919.04,350.29,319.07,25.50,0000 0000 0000 0000 000000
2013-12-03 01:57:24,0.05,2.38,0.00,25.47,26.59,29.86,5.93,30.17,1009.29,2046.00,2617.00,2696.01,2919.00,349.95,318.75,25.50,0000 0000 0000 0000 000000
2013-12-03 01:58:25,0.02,2.38,0.00,25.44,26.59,29.86,5.88,30.08,1009.29,2046.00,2616.90,2695.94,2918.88,350.08,319.08,25.51,0000 0000 0000 0000 000000
2013-12-03 01:59:25,0.06,2.38,0.00,25.43,26.59,29.86,5.74,29.88,1009.29,2046.00,2616.43,2695.58,2918.47,349.63,318.68,25.51,0000 0000 0000 0000 000000
2013-12-03 02:00:25,0.27,2.39,0.00,25.43,26.59,29.89,5.83,30.21,1009.29,2045.99,2616.15,2695.24,2918.19,349.30,319.22,25.52,0000 0000 0000 0000 000000
2013-12-03 02:01:26,0.18,2.39,0.00,25.49,26.60,29.89,6.04,30.04,1009.29,2045.99,2616.05,2695.09,2918.07,350.89,319.74,25.53,0000 0000 0000 0000 000000
2013-12-03 02:02:26,0.08,2.39,0.00,25.48,26.60,29.89,5.66,29.83,1009.29,2045.99,2615.99,2695.03,2918.02,349.45,318.46,25.53,0000 0000 0000 0000 000000
2013-12-03 02:03:26,0.04,2.39,0.00,25.48,26.60,29.90,5.93,30.08,1009.29,2045.99,2615.57,2695.01,2917.98,350.63,319.52,25.54,0000 0000 0000 0000 000000
2013-12-03 02:04:26,0.09,2.39,0.00,25.50,26.60,29.90,5.86,29.92,1009.29,2045.99,2615.22,2694.89,2917.64,349.73,318.84,25.54,0000 0000 0000 0000 000000
2013-12-03 02:05:27,0.15,2.39,0.00,25.50,26.60,29.88,5.77,29.83,1009.29,2045.99,2615.07,2694.43,2917.25,350.36,319.27,25.55,0000 0000 0000 0000 000000
2013-12-03 02:06:27,0.21,2.39,0.00,25.46,26.60,29.90,5.78,29.96,1009.29,2045.99,2614.91,2694.18,2917.08,349.52,318.54,25.56,0000 0000 0000 0000 000000
2013-12-03 02:07:27,0.13,2.39,0.00,25.45,26.60,29.88,5.95,30.08,1009.29,2045.99,2614.40,2694.06,2917.02,349.37,318.41,25.56,0000 0000 0000 0000 000000
2013-12-03 02:08:27,0.13,2.39,0.00,25.44,26.60,29.91,5.85,29.79,1009.29,2045.98,2614.14,2693.99,2916.80,348.83,317.93,25.57,0000 0000 0000 0000 000000
2013-12-03 02:09:28,0.10,2.39,0.00,25.42,26.60,29.89,5.96,30.13,1009.28,2045.99,2614.03,2693.86,2916.36,349.36,318.44,25.57,0000 0000 0000 0000 000000
2013-12-03 02:10:28,0.14,2.39,0.00,25.43,26.60,29.89,6.02,30.04,1009.29,2045.98,2613.91,2693.53,2916.14,350.51,319.50,25.58,0000 0000 0000 0000 000000
2013-12-03 02:11:28,0.16,2.39,0.00,25.44,26.60,29.90,5.97,30.33,1009.29,2045.99,2613.44,2693.21,2916.04,349.97,318.97,25.58,0000 0000 0000 0000 000000
2013-12-03 02:12:29,0.18,2.40,0.00,25.41,26.60,29.90,5.98,30.04,1009.29,2045.99,2613.17,2693.08,2916.00,350.28,319.29,25.59,0000 0000 0000 0000 000000
2013-12-03 02:13:29,0.09,2.40,0.00,25.43,26.60,29.88,5.94,29.96,1009.29,2045.99,2613.07,2693.03,2915.91,349.79,318.82,25.60,0000 0000 0000 0000 000000
2013-12-03 02:14:29,0.05,2.40,0.00,25.45,26.60,29.89,5.92,29.96,1009.29,2045.99,2612.95,2692.99,2915.52,350.85,319.92,25.60,0000 0000 0000 0000 000000
2013-12-03 02:15:29,0.12,2.40,0.00,25.44,26.60,29.87,5.94,30.25,1009.29,2045.98,2612.54,2692.74,2915.19,350.26,319.14,25.61,0000 0000 0000 0000 000000
2013-12-03 02:16:30,0.19,2.40,0.00,25.41,26.60,29.87,5.96,30.21,1009.29,2045.98,2612.24,2692.38,2915.07,349.71,319.17,25.61,0000 0000 0000 0000 000000
2013-12-03 02:17:30,0.16,2.40,0.00,25.41,26.60,29.88,6.02,30.08,1009.29,2045.98,2612.08,2692.16,2915.00,350.69,319.23,25.62,0000 0000 0000 0000 000000
2013-12-03 02:18:30,0.10,2.40,0.00,25.38,26.60,29.89,5.83,29.96,1009.29,2045.98,2612.02,2692.06,2914.79,350.00,319.09,25.63,0000 0000 0000 0000 000000
2013-12-03 02:19:30,0.09,2.40,0.00,25.38,26.60,29.90,5.87,30.13,1009.30,2045.98,2611.64,2692.02,2914.36,349.43,318.55,25.63,0000 0000 0000 0000 000000
2013-12-03 02:20:31,0.15,2.40,0.00,25.38,26.61,29.86,5.79,30.00,1009.30,2045.98,2611.25,2691.95,2914.13,349.55,318.37,25.64,0000 0000 0000 0000 000000
2013-12-03 02:21:31,0.13,2.40,0.00,25.38,26.61,29.89,5.98,30.04,1009.31,2045.98,2611.09,2691.66,2914.05,350.24,319.00,25.64,0000 0000 0000 0000 000000
2013-12-03 02:22:31,0.13,2.40,0.00,25.38,26.61,29.91,5.87,30.00,1009.31,2045.99,2611.01,2691.28,2914.01,349.85,318.76,25.65,0000 0000 0000 0000 000000
2013-12-03 02:23:32,0.13,2.40,0.00,25.39,26.62,29.89,5.87,29.83,1009.34,2045.99,2610.68,2691.10,2913.78,351.15,320.12,25.65,0000 0000 0000 0000 000000
2013-12-03 02:24:32,0.14,2.40,0.00,25.46,26.62,29.88,5.98,29.96,1009.36,2045.98,2610.28,2691.03,2913.35,350.25,319.23,25.66,0000 0000 0000 0000 000000
2013-12-03 02:25:32,0.16,2.41,0.00,25.45,26.62,29.89,5.71,30.00,1009.46,2045.98,2610.10,2690.96,2913.13,349.35,318.23,25.67,0000 0000 0000 0000 000000
2013-12-03 02:26:33,0.08,2.41,0.00,25.38,26.62,29.90,6.02,30.38,1009.45,2045.98,2610.03,2690.84,2913.05,350.31,319.39,25.67,0000 0000 0000 0000 000000
2013-12-03 02:27:33,0.08,2.41,0.00,25.39,26.62,29.89,5.94,30.25,1009.54,2045.99,2609.83,2690.41,2913.01,350.80,319.87,25.68,0000 0000 0000 0000 000000
2013-12-03 02:28:33,0.17,2.41,0.00,25.42,26.62,29.87,5.88,29.88,1009.66,2045.99,2609.37,2690.15,2912.93,349.58,319.21,25.68,0000 0000 0000 0000 000000
2013-12-03 02:29:34,0.18,2.41,0.00,25.44,26.62,29.89,5.80,30.00,1009.66,2045.99,2609.14,2690.05,2912.58,349.72,318.87,25.69,0000 0000 0000 0000 000000
2013-12-03 02:30:34,0.12,2.41,0.00,25.46,26.62,29.89,6.01,30.25,1009.64,2045.99,2609.05,2690.01,2912.26,350.32,319.38,25.70,0000 0000 0000 0000 000000
2013-12-03 02:31:34,0.08,2.41,0.00,25.46,26.62,29.88,5.67,30.00,1009.66,2045.99,2608.88,2689.96,2912.09,349.27,318.55,25.70,0000 0000 0000 0000 000000
2013-12-03 02:32:34,0.07,2.41,0.00,25.46,26.62,29.91,5.88,30.17,1009.73,2045.95,2608.45,2689.68,2912.03,350.11,319.09,25.71,0000 0000 0000 0000 000000
2013-12-03 02:33:35,0.13,2.41,0.00,25.46,26.62,29.93,5.92,30.13,1009.69,2045.96,2608.16,2689.33,2911.97,350.32,319.40,25.71,0000 0000 0000 0000 000000
2013-12-03 02:34:35,0.18,2.41,0.00,25.45,26.62,29.92,5.76,29.83,1009.69,2045.97,2608.04,2689.11,2911.62,349.27,318.45,25.72,0000 0000 0000 0000 000000
2013-12-03 02:35:35,0.16,2.41,0.00,25.45,26.62,29.93,5.89,30.21,1009.59,2045.95,2607.83,2689.04,2911.23,349.28,318.43,25.73,0000 0000 0000 0000 000000
2013-12-03 02:36:35,0.12,2.41,0.00,25.40,26.62,29.92,5.88,30.21,1009.61,2045.95,2607.39,2688.98,2911.08,350.33,319.45,25.73,0000 0000 0000 0000 000000